This is the latest recevied weather packets stored in our database for station/object KB1FFS. If no packets are shown the sender has not sent any weather packets the latest 10 day(s).
| Time | Temp. | Humidity | Pressure | Rain* | Wind** | Luminosity | Snow |
|---|---|---|---|---|---|---|---|
| 1787777266 | 40° C | 36% | 1014.8 hPa | 0 mm | - | 636 W/m² | - |
| 1787776965 | 39.44° C | 38% | 1014.7 hPa | 0 mm | - | 636 W/m² | - |
| 1787776664 | 39.44° C | 37% | 1014.9 hPa | 0 mm | - | 643 W/m² | - |
| 1787776364 | 40° C | 36% | 1014.9 hPa | 0 mm | - | 670 W/m² | - |
| 1787776062 | 40° C | 36% | 1015.1 hPa | 0 mm | - | 684 W/m² | - |
| 1787775757 | 40.56° C | 35% | 1015.3 hPa | 0 mm | - | 683 W/m² | - |
| 1787775456 | 40° C | 37% | 1015.2 hPa | 0 mm | - | 698 W/m² | - |
| 1787775154 | 39.44° C | 38% | 1015.1 hPa | 0 mm | - | 727 W/m² | - |
| 1787774854 | 39.44° C | 38% | 1015 hPa | 0 mm | - | 757 W/m² | - |
| 1787774553 | 38.89° C | 39% | 1015.3 hPa | 0 mm | - | 672 W/m² | - |
| 1787774253 | 38.33° C | 40% | 1015.4 hPa | 0 mm | - | 706 W/m² | - |
| 1787773952 | 38.33° C | 41% | 1015.3 hPa | 0 mm | - | 344 W/m² | - |
| 1787773651 | 38.33° C | 42% | 1015.6 hPa | 0 mm | - | 433 W/m² | - |
| 1787773347 | 37.22° C | 42% | 1015.4 hPa | 0 mm | - | 760 W/m² | - |
| 1787773042 | 36.67° C | 42% | 1015.7 hPa | 0 mm | - | 382 W/m² | - |
| 1787772738 | 36.67° C | 43% | 1015.7 hPa | 0 mm | - | 318 W/m² | - |
| 1787772436 | 37.22° C | 41% | 1015.7 hPa | 0 mm | - | 358 W/m² | - |
| 1787772130 | 36.67° C | 44% | 1015.7 hPa | 0 mm | - | 386 W/m² | - |
| 1787771829 | 36.11° C | 45% | 1015.9 hPa | 0 mm | - | 418 W/m² | - |
| 1787771529 | 35.56° C | 46% | 1015.9 hPa | 0 mm | - | 363 W/m² | - |
| 1787771223 | 35° C | 46% | 1016.2 hPa | 0 mm | - | 395 W/m² | - |
| 1787770919 | 35° C | 46% | 1016.1 hPa | 0 mm | - | 356 W/m² | - |
| 1787770617 | 35° C | 49% | 1016.2 hPa | 0 mm | - | 358 W/m² | - |
| 1787770312 | 34.44° C | 48% | 1016.2 hPa | 0 mm | - | 572 W/m² | - |
| 1787770010 | 33.89° C | 49% | 1016.3 hPa | 0 mm | - | 344 W/m² | - |
* Rain latest hour (hover to see other rain measurements)
** Current wind speed in m/s (hover to see current wind gust speed)